Погода в Эрэн-Хото

Китай     43°38′49″N   111°58′54″E
темп.,
°C
ветер,
м/с
пор.,
м/с
влажн.,
%
обл.,
%
осадки,
мм/ч
давл.,
гПа
погр.,
м
19 января, вт
вт1923:00−17в44883 0.0 102336
02:00−17в33873 0.0 102221
05:00−16в33860 0.0 102221
08:00−17в34860 0.0 102323
11:00−13в348268 0.0 102379
14:00−10в228052 0.0 102080
17:00−12вюв238185 0.0 102121
20:00−13юз117992 0.0 102221
20 января, ср
ср2023:00−13юз337590 0.0 102221
02:00−13зюз457347 0.0 102330
05:00−13зюз45730 0.0 102337
08:00−13зюз45750 0.0 102540
11:00−11зюз59780 0.0 1026230
14:00−8з47740 0.0 1024260
17:00−10зюз237425 0.0 102521
20:00−12ююз237820 0.0 102721
21 января, чт
чт2123:00−12ююз237529 0.0 102721
02:00−12юз337365 0.0 102621
05:00−12юз336996 0.0 102621
08:00−13зюз236966 0.0 102721
11:00−10зюз117161 0.0 102834
14:00−8зсз237241 0.0 1026197
17:00−11сз11730 0.0 102721
20:00−13ссз11720 0.0 103021
22 января, пт
пт2223:00−14вюв11730 0.0 103120
02:00−15в22800 0.0 103120
05:00−16в33840 0.0 103020
08:00−16в448638 0.0 103038
11:00−13в4484100 0.0 1027123
14:00−10в3482100 0.0 1023145
17:00−11в44830 0.0 102128
20:00−12в448110 0.0 102226
23 января, сб
сб2323:00−13в34833 0.0 102223
02:00−13в33876 0.0 102121
05:00−12вюв228617 0.0 102121
08:00−13в22829 0.0 102221
11:00−10в238128 0.0 102256
14:00−7в227814 0.0 102067
17:00−9в23760 0.0 102121
20:00−10вюв33760 0.0 102221